Preview of NWS' New Version of Forecast
This preview is not operational and should not be used for support decisions.

Regional Weather Roundup (RWR)

Issued by National Weather Service (NWS)

                            
000
ASUS45 KBOU 200410
RWRCO 

WEATHER ROUNDUP FOR COLORADO
NATIONAL WEATHER SERVICE DENVER/BOULDER CO
1000 PM MDT WED JUN 19 2019

NOTE: "FAIR" INDICATES FEW OR NO CLOUDS BELOW 12000 FEET WITH NO
SIGNIFICANT WEATHER AND/OR OBSTRUCTIONS TO VISIBILITY.

COZ001>005-013-030-031-200500-
...NORTHWEST COLORADO...
  
CITY           SKY/WX    TMP DP  RH WIND       PRES   REMARKS
CRAIG          MOCLDY    60  43  53 VRB3      29.94R                  
HAYDEN         MOCLDY    62  44  51 VRB5      29.97R                  
MEEKER         FAIR      59  45  59 VRB3      29.97R                  
RANGELY        FAIR      72  32  22 SW7       29.89R                  
RABBIT EARS PA NOT AVBL                                               
STEAMBOAT SPGS FAIR      58  46  65 E5        29.98S                  
WALDEN         FAIR      57  37  47 SW10      30.06S                  
$$

COZ006>008-011-200500-
...WEST CENTRAL VALLEYS...
  
CITY           SKY/WX    TMP DP  RH WIND       PRES   REMARKS
GRAND JUNCTION FAIR      69  41  36 E3        29.86R                  
MONTROSE         N/A     67  38  34 SE9       29.99R                  
EAGLE          FAIR      60  45  57 E7        30.02R                  
RIFLE          FAIR      65  46  50 SE7       29.91S                  
DELTA          FAIR      71  39  30 NE5       29.92R                  
NUCLA          FAIR      68  41  37 SE7       30.01R                  
$$

COZ017>023-064>068-200500-
...SOUTHWEST COLORADO...
  
CITY           SKY/WX    TMP DP  RH WIND       PRES   REMARKS
DURANGO        FAIR      66  31  27 N6        30.07R                  
CORTEZ         FAIR      62  39  42 CALM      30.01R                  
PAGOSA SPRINGS FAIR      59  36  42 CALM      30.16R                  
TELLURIDE      MOCLDY    55  37  50 SE8       30.27R                  
WOLF CREEK PAS FAIR      43  32  65 SW12      30.49R                  
$$

COZ009-010-012-014-032>034-037-058>063-200500-
...CENTRAL COLORADO...
  
CITY           SKY/WX    TMP DP  RH WIND       PRES   REMARKS
ASPEN          FAIR      55  38  52 S9        30.10R                  
BUENA VISTA    FAIR      57  31  36 W3        30.11S                  
COPPER MTN     FAIR      46  30  53 W24G31    30.36S                  
BERTHOUD PASS  FAIR      39  32  75 W49G62    30.31F                  
COTTONWOOD PAS FAIR      57  28  33 W15G28    30.23S                  
GUNNISON       FAIR      57  42  57 CALM      30.13R                  
GRANBY         FAIR      50  44  78 CALM      30.09S                  
KREMMLING      FAIR      55  41  58 CALM      30.05R                  
LEADVILLE      FAIR      46  33  60 NE6       30.23S                  
MONARCH PASS   MOCLDY    45  32  61 MISG      30.49R                  
SALIDA         FAIR      62  35  35 W5        30.15S                  
SUNLIGHT       FAIR      45  32  61 SW15G24   30.30F                  
WILKERSON PASS FAIR      46  28  49 SW9G21    30.33S                  
$$

COZ069>075-200500-
...SAN LUIS VALLEY/SANGRE DE CRISTO MOUNTAINS...
  
CITY           SKY/WX    TMP DP  RH WIND       PRES   REMARKS
ALAMOSA        FAIR      60  37  42 W9        30.10R                  
DEL NORTE      FAIR      58  32  36 W8        30.15R                  
LA VETA PASS   NOT AVBL                                               
SAGUACHE       FAIR      57  36  44 CALM      30.12S                  
$$

COZ035-036-038>040-200500-
...NORTHERN COLORADO FRONT RANGE...
  
CITY           SKY/WX    TMP DP  RH WIND       PRES   REMARKS
DENVER INTL AP MOCLDY    64  54  69 S8        29.85S                  
AURORA         MOCLDY    67  51  57 S9        29.88R                  
FRONT RANGE AP FAIR      68  55  61 S6        29.87F                  
ERIE MUNI ARPT FAIR      70  40  33 SW5       29.88F                  
BOULDER MUN AP FAIR      70  41  35 S3        29.83F                  
CENTENNIAL     MOCLDY    66  47  50 SW5       29.90R                  
BROOMFIELD     MOCLDY    68  39  34 W5        29.88R                  
FORT COLLINS   FAIR      69  47  45 SW7       29.80S                  
LONGMONT       FAIR      73  41  31 CALM      29.84R                  
$$

COZ041-046-047-076>085-087-088-200500-
...PIKES PEAK/PALMER DIVIDE AND SOUTHERN FOOTHILLS...
  
CITY           SKY/WX    TMP DP  RH WIND       PRES   REMARKS
COLO. SPRINGS  FAIR      65  45  48 CALM      29.98R                  
A. F. ACADEMY  FAIR      62  46  56 E5        29.98R                  
SCHRIEVER AFB  NOT AVBL                                               
CHEYENNE MTN   NOT AVBL                                               
ELLICOTT         N/A    N/A N/A N/A S12       29.95R                  
FALCON         FAIR      59  44  57 W5        30.02R                  
FORT CARSON    PTCLDY    68  44  43 S5        29.93R                  
LIMON          FAIR      61  52  72 S7        29.90R                  
MONUMENT HILL  FAIR      59  41  51 SW9       30.02R                  
CANON CITY     FAIR      72  34  25 W15       29.89R                  
WALSENBURG     NOT AVBL                                               
TRINIDAD       FAIR      64  40  41 NW8       29.93R                  
$$

COZ042>045-048>051-090-091-200500-
...NORTHEAST COLORADO...
  
CITY           SKY/WX    TMP DP  RH WIND       PRES   REMARKS
GREELEY ARPT   FAIR      66  56  70 E6        29.79S                  
AKRON          FAIR      63  54  72 S10       29.82R                  
BURLINGTON     FAIR      62  52  69 S10       29.83S                  
WRAY           FAIR      64  52  63 S9        29.77S                  
YUMA           FAIR      61  41  48 S7        29.78F                  
STERLING       FAIR      63  54  72 S7        29.75S                  
HOLYOKE        FAIR      64  54  68 S8        29.76S                  
FORT MORGAN    FAIR      65  52  62 SE7       29.80S                  
$$

COZ086-089-092>099-200500-
...SOUTHEAST COLORADO...
  
CITY           SKY/WX    TMP DP  RH WIND       PRES   REMARKS
PUEBLO         FAIR      71  48  43 E8        29.85R                  
LA JUNTA       FAIR      72  49  44 SE13      29.83R                  
LAMAR          FAIR      69  54  58 S13       29.79R                  
SPRINGFIELD      N/A     60  54  80 S10       29.87R                  
$$